[Iaude] MPEC D111: 2024 DP1 [a=1.15,e=0.08,i=24.9,H=24.4]
    mpec at cfa.harvard.edu 
    mpec at cfa.harvard.edu
       
    Thu Feb 22 11:17:43 EST 2024
    
    
  
M.P.E.C. 2024-D111                            Issued 2024 February 22, 16:16 UT
     The Minor Planet Electronic Circulars contain information on unusual
         minor planets, routine data on comets and natural satellites,
         and occasional editorial announcements.  They are published
    on behalf of Division F of the International Astronomical Union by the
          Minor Planet Center, Smithsonian Astrophysical Observatory,
                          Cambridge, MA 02138, U.S.A.
			  
             Prepared using the Tamkin Foundation Computer Network
                              MPC at CFA.HARVARD.EDU
            URL https://www.minorplanetcenter.net/    ISSN 1523-6714
                                    2024 DP1                                    
Observations:
     K24D01P KC2024 02 17.55157212 10 28.173+07 28 09.54         20.75GVED111F51
     K24D01P*1C2024 02 19.38758112 19 32.408+14 20 34.55         20.67GVED111G96
     K24D01P 1C2024 02 19.39273112 19 33.852+14 21 45.94         21.21GVED111G96
     K24D01P 1C2024 02 19.39788212 19 35.270+14 22 55.99         20.88GVED111G96
     K24D01P 1C2024 02 19.40302312 19 36.739+14 24 08.60         20.52GVED111G96
     K24D01P  C2024 02 19.42492512 19 42.447+14 29 05.52         20.4 GVED111H01
     K24D01P  C2024 02 19.43094212 19 44.122+14 30 27.95         20.7 GVED111H01
     K24D01P  C2024 02 19.44093412 19 46.880+14 32 45.06         20.5 GVED111H01
     K24D01P  C2024 02 19.44582612 19 48.244+14 33 52.16         20.6 GVED111H01
     K24D01P 1C2024 02 19.51538412 20 11.438+14 50 08.20         20.79GVED111T12
     K24D01P 1C2024 02 19.51804412 20 12.169+14 50 44.93         20.78GVED111T12
     K24D01P KC2024 02 20.29581012 24 14.21 +17 49 06.7          21.1 GVED111H21
     K24D01P KC2024 02 20.29783312 24 14.79 +17 49 34.5          21.3 GVED111H21
     K24D01P KC2024 02 20.32260112 24 21.92 +17 55 18.0          20.9 GVED111H21
     K24D01P  C2024 02 20.60618012 25 48.553+19 01 02.38         20.65GVED111F51
Observer details:
F51 Pan-STARRS 1, Haleakala.  Observers J. Herman, T. Lowe, P. Minguez, A.
    Schultz, I. Smith.  Measurers K. Chambers, T. de Boer, J. Fairlamb, H.
    Gao, M. Huber, C.-C. Lin, E. Magnier, Y. Ramanjooloo, R. Wainscoat, R.
    Weryk.  1.8-m Ritchey-Chretien + CCD.
G96 Mt. Lemmon Survey.  Observers T. Beuden, G. J. Leonard.  Measurers T.
    Beuden, V. F. Carvajal, D. Fay, J. B. Fazekas, D. C. Fuls, A. R. Gibbs, A.
    D. Grauer, H. Groeller, J. K. Hogan, R. A. Kowalski, S. M. Larson, G. J.
    Leonard, D. Rankin, R. L. Seaman, F. C. Shelly, K. W. Wierzchos.  1.5-m
    reflector + 10K CCD.
H01 Magdalena Ridge Observatory, Socorro.  Observers W. H. Ryan, E. V. Ryan.
    Measurer W. H. Ryan.  2.4-m f/8.9 Ritchey-Chretien + CCD.
H21 Astronomical Research Observatory, Westfield.  Observer R. Holmes.
    Measurers T. Linder, R. Holmes, L. Horn.  1.3-m f/4.0 astrograph + CCD.
T12 University of Hawaii 88-inch telescope, Maunakea.  Observer Y.
    Ramanjooloo.  Measurers R. Weryk, Y. Ramanjooloo, J. Fairlamb, R.
    Wainscoat.  2.24-m f/10.1 reflector + CCD.
Orbital elements:
2024 DP1                                                 Earth MOID = 0.0969 AU
Epoch 2024 Mar. 31.0 TT = JDT 2460400.5                 Bell                    
M 353.18611              (2000.0)            P               Q                  
n   0.80057742     Peri.   49.00377     -0.91329894     +0.34584761             
a   1.1486838      Node   149.33479     -0.35972263     -0.93264490             
e   0.0779249      Incl.   24.94683     +0.19100961     -0.10277608             
P   1.23           H   24.42          G   0.15           U   8                  
Residuals in seconds of arc
240217 F51  0.2-  0.0     240219 H01  0.0   0.1+    240219 T12  0.2+  0.2+
240219 G96  0.3-  0.2-    240219 H01  0.1+  0.1-    240220 H21  0.0   0.1-
240219 G96  0.0   0.4+    240219 H01  0.0   0.0     240220 H21  0.1-  0.3-
240219 G96  0.0   0.3-    240219 H01  0.1+  0.1+    240220 H21  0.0   0.2+
240219 G96 (0.8+  1.7+)   240219 T12  0.1+  0.1+    240220 F51  0.1+  0.3+
Ephemeris:
2024 DP1                 a,e,i = 1.15, 0.08, 25                  q = 1.0592
Date    TT    R. A. (2000) Decl.     Delta      r    Elong.  Phase     V
2024 01 23    10 45 12.5 -36 22 55   0.2530  1.1113   114.0    54.0    23.6
...
2024 02 07    11 27 46.6 -21 24 10   0.1547  1.0945   131.4    42.5    22.2
...
2024 02 15    11 58 46.8 -01 23 10   0.1181  1.0866   145.2    31.3    21.3
...
2024 02 21    12 27 56.3 +20 31 35   0.1087  1.0811   146.5    30.3    21.1
2024 02 22    12 33 22.8 +24 20 27   0.1091  1.0802   145.0    31.7    21.1
2024 02 23    12 38 59.8 +28 05 19   0.1101  1.0794   143.2    33.3    21.2
...
2024 02 29    13 16 21.1 +47 25 57   0.1262  1.0746   129.1    45.7    21.8
...
2024 03 08    14 14 06.0 +62 50 12   0.1651  1.0691   113.5    58.4    22.8
...
2024 03 23    15 59 25.7 +73 03 30   0.2530  1.0620    98.0    68.3    24.0
M. P. C. Staff               (C) Copyright 2024 MPC           M.P.E.C. 2024-D111
    
    
More information about the Iaude
mailing list